N6GIW Weather Reports


Display with metric or nautical units.
time (UTC)temp
F
wind
direction
speed
MPH
gust
MPH
rain 1hr
in
rain 24hr
in
rain mn
in
humidity
%
barometer
mb
20260831040504 83 224 7.0 12.0 0.00 0.00 0.00 32 1020.4
20260831040003 84 228 9.0 15.0 0.00 0.00 0.00 31 1020.3
20260831035505 84 221 9.0 14.0 0.00 0.00 0.00 29 1020.2
20260831035003 83 221 9.0 14.0 0.00 0.00 0.00 29 1020.3
20260831034003 82 212 6.0 13.0 0.00 0.00 0.00 36 1020.3
20260831033505 81 196 1.0 6.0 0.00 0.00 0.00 37 1020.4
20260831032504 82 229 3.0 10.0 0.00 0.00 0.00 40 1020.2
20260831032003 82 219 6.0 12.0 0.00 0.00 0.00 40 1020.1
20260831031504 82 212 6.0 12.0 0.00 0.00 0.00 39 1020.0
20260831031004 82 202 5.0 10.0 0.00 0.00 0.00 40 1020.1
20260831030504 83 209 6.0 9.0 0.00 0.00 0.00 39 1020.0
20260831030004 83 217 5.0 10.0 0.00 0.00 0.00 38 1019.9
20260831025504 83 189 5.0 9.0 0.00 0.00 0.00 38 1019.9
20260831025004 84 216 3.0 8.0 0.00 0.00 0.00 37 1020.0
20260831024504 84 211 6.0 9.0 0.00 0.00 0.00 35 1019.7
20260831024003 85 205 6.0 12.0 0.00 0.00 0.00 33 1019.6
20260831023503 85 209 6.0 10.0 0.00 0.00 0.00 32 1019.4
20260831023004 85 209 4.0 8.0 0.00 0.00 0.00 30 1019.3
20260831022504 86 215 4.0 12.0 0.00 0.00 0.00 31 1019.4
20260831022004 86 224 8.0 16.0 0.00 0.00 0.00 31 1019.3
20260831021503 86 210 7.0 13.0 0.00 0.00 0.00 31 1019.3
20260831021003 87 221 6.0 14.0 0.00 0.00 0.00 29 1019.2
20260831020503 87 224 6.0 12.0 0.00 0.00 0.00 28 1019.2
20260831020004 88 232 6.0 13.0 0.00 0.00 0.00 28 1019.1
20260831015503 88 227 7.0 15.0 0.00 0.00 0.00 28 1019.1
20260831015004 88 228 9.0 15.0 0.00 0.00 0.00 28 1019.0
20260831014503 88 207 11.0 17.0 0.00 0.00 0.00 29 1019.1
20260831014005 89 224 6.0 13.0 0.00 0.00 0.00 28 1019.1
20260831013503 89 205 11.0 18.0 0.00 0.00 0.00 27 1019.1
20260831012503 89 213 13.0 25.0 0.00 0.00 0.00 27 1019.3
20260831012004 90 218 12.0 20.0 0.00 0.00 0.00 28 1019.5
20260831011504 90 245 12.0 18.0 0.00 0.00 0.00 29 1019.5
20260831010004 91 222 13.0 18.0 0.00 0.00 0.00 27 1019.6
20260831005503 91 218 13.0 20.0 0.00 0.00 0.00 26 1019.4
20260831005004 91 217 13.0 23.0 0.00 0.00 0.00 26 1019.6
20260831004504 92 206 13.0 21.0 0.00 0.00 0.00 27 1019.4
20260831004003 92 206 13.0 23.0 0.00 0.00 0.00 25 1019.5
20260831003004 92 213 13.0 20.0 0.00 0.00 0.00 24 1019.4
20260831002504 92 234 14.0 22.0 0.00 0.00 0.00 24 1019.4
20260831001004 93 227 15.0 21.0 0.00 0.00 0.00 21 1019.4
20260831000503 93 211 13.0 22.0 0.00 0.00 0.00 21 1019.4
20260831000004 93 234 15.0 20.0 0.00 0.00 0.00 20 1019.4
20260830235503 94 219 15.0 21.0 0.00 0.00 0.00 20 1019.3
20260830235004 93 199 18.0 28.0 0.00 0.00 0.00 17 1019.4
20260830234504 94 206 16.0 26.0 0.00 0.00 0.00 20 1019.5
20260830234003 94 220 12.0 24.0 0.00 0.00 0.00 19 1019.4
20260830233503 94 200 12.0 20.0 0.00 0.00 0.00 18 1019.5
20260830233004 94 215 12.0 22.0 0.00 0.00 0.00 19 1019.4
20260830231504 94 200 15.0 23.0 0.00 0.00 0.00 20 1019.5
20260830230503 94 193 16.0 23.0 0.00 0.00 0.00 19 1019.7
20260830230004 94 197 14.0 26.0 0.00 0.00 0.00 18 1019.8
20260830225503 94 205 14.0 21.0 0.00 0.00 0.00 20 1019.7
20260830225003 95 196 14.0 23.0 0.00 0.00 0.00 18 1019.9
20260830224504 95 202 12.0 20.0 0.00 0.00 0.00 19 1019.8
20260830224004 95 198 12.0 22.0 0.00 0.00 0.00 19 1020.1
20260830223504 94 207 13.0 28.0 0.00 0.00 0.00 19 1020.1
20260830223004 95 192 13.0 30.0 0.00 0.00 0.00 21 1020.1
20260830222004 95 222 14.0 20.0 0.00 0.00 0.00 18 1020.3
20260830221004 94 189 14.0 21.0 0.00 0.00 0.00 21 1020.5
20260830220504 95 190 15.0 26.0 0.00 0.00 0.00 22 1020.6
20260830220004 95 197 12.0 20.0 0.00 0.00 0.00 21 1020.7
20260830215005 95 199 13.0 20.0 0.00 0.00 0.00 22 1020.8
20260830214503 94 198 12.0 24.0 0.00 0.00 0.00 22 1021.0
20260830214004 94 194 14.0 24.0 0.00 0.00 0.00 22 1021.0
20260830213504 95 190 14.0 22.0 0.00 0.00 0.00 21 1021.2
20260830213004 94 198 10.0 25.0 0.00 0.00 0.00 22 1021.2
20260830212503 94 172 14.0 24.0 0.00 0.00 0.00 22 1021.4
20260830212004 94 165 10.0 21.0 0.00 0.00 0.00 23 1021.5
20260830211503 94 191 13.0 26.0 0.00 0.00 0.00 22 1021.6
20260830211004 94 180 12.0 26.0 0.00 0.00 0.00 22 1021.7
20260830210503 94 182 13.0 18.0 0.00 0.00 0.00 22 1021.7
20260830210004 94 202 10.0 16.0 0.00 0.00 0.00 23 1021.8
20260830205503 94 217 12.0 18.0 0.00 0.00 0.00 23 1021.9
20260830205004 94 185 13.0 20.0 0.00 0.00 0.00 23 1022.2
20260830204505 94 186 10.0 16.0 0.00 0.00 0.00 23 1022.2
20260830204004 94 166 11.0 17.0 0.00 0.00 0.00 24 1022.1
20260830203504 93 187 8.0 17.0 0.00 0.00 0.00 22 1022.2
20260830203004 94 168 9.0 13.0 0.00 0.00 0.00 24 1022.3
20260830202504 93 158 6.0 20.0 0.00 0.00 0.00 25 1022.3
20260830202004 93 152 6.0 20.0 0.00 0.00 0.00 24 1022.2
20260830201504 93 173 11.0 16.0 0.00 0.00 0.00 24 1022.2
20260830201003 94 204 9.0 15.0 0.00 0.00 0.00 23 1022.2
20260830200504 94 168 10.0 20.0 0.00 0.00 0.00 24 1022.3
20260830200004 94 169 14.0 21.0 0.00 0.00 0.00 24 1022.3
20260830195504 94 171 10.0 20.0 0.00 0.00 0.00 24 1022.2
20260830195003 93 172 12.0 24.0 0.00 0.00 0.00 24 1022.1
20260830194504 93 212 10.0 17.0 0.00 0.00 0.00 23 1022.2
20260830194004 93 192 9.0 20.0 0.00 0.00 0.00 23 1022.2
20260830193004 93 199 12.0 18.0 0.00 0.00 0.00 22 1022.6
20260830192504 93 181 12.0 20.0 0.00 0.00 0.00 22 1022.5
20260830192003 93 185 10.0 15.0 0.00 0.00 0.00 23 1022.6
20260830191503 93 185 12.0 17.0 0.00 0.00 0.00 23 1022.6
20260830191003 92 195 12.0 20.0 0.00 0.00 0.00 23 1022.6
20260830190504 92 185 9.0 14.0 0.00 0.00 0.00 24 1022.9
20260830190003 92 196 8.0 14.0 0.00 0.00 0.00 24 1022.8
20260830185504 92 194 5.0 15.0 0.00 0.00 0.00 23 1022.9
20260830184503 92 208 5.0 14.0 0.00 0.00 0.00 24 1022.8
20260830184004 92 195 7.0 12.0 0.00 0.00 0.00 24 1022.9
20260830183504 92 162 5.0 14.0 0.00 0.00 0.00 24 1023.0
20260830183004 92 162 1.0 5.0 0.00 0.00 0.00 26 1023.0
20260830182504 91 144 2.0 7.0 0.00 0.00 0.00 26 1023.0
20260830182003 91 299 1.0 5.0 0.00 0.00 0.00 26 1023.1
20260830181504 92 145 2.0 7.0 0.00 0.00 0.00 26 1023.1
20260830181004 92 126 4.0 8.0 0.00 0.00 0.00 26 1023.1
20260830180504 91 93 2.0 7.0 0.00 0.00 0.00 26 1023.0
20260830175504 91 122 0.0 7.0 0.00 0.00 0.00 27 1023.1
20260830174004 91 100 1.0 9.0 0.00 0.00 0.00 27 1023.1
20260830173004 90 126 3.0 6.0 0.00 0.00 0.00 27 1023.0
20260830172504 89 115 1.0 6.0 0.00 0.00 0.00 28 1023.2
20260830172004 90 115 1.0 3.0 0.00 0.00 0.00 28 1023.2
20260830171504 90 99 1.0 3.0 0.00 0.00 0.00 28 1023.0
20260830171004 89 162 0.0 7.0 0.00 0.00 0.00 28 1023.0
20260830170503 89 120 1.0 12.0 0.00 0.00 0.00 29 1023.0
20260830170004 89 102 1.0 3.0 0.00 0.00 0.00 29 1023.1
20260830165504 89 94 1.0 3.0 0.00 0.00 0.00 28 1023.1
20260830165004 88 97 1.0 3.0 0.00 0.00 0.00 30 1023.0
20260830164503 88 86 1.0 3.0 0.00 0.00 0.00 30 1022.9
20260830164004 87 95 1.0 3.0 0.00 0.00 0.00 30 1022.9
20260830163504 87 70 1.0 3.0 0.00 0.00 0.00 31 1023.1
20260830163004 86 69 0.0 2.0 0.00 0.00 0.00 31 1022.9
20260830162503 86 85 1.0 3.0 0.00 0.00 0.00 31 1022.9
20260830162004 86 100 0.0 3.0 0.00 0.00 0.00 31 1023.0
20260830161504 86 84 0.0 3.0 0.00 0.00 0.00 32 1022.9
20260830161005 85 86 0.0 2.0 0.00 0.00 0.00 32 1023.0
20260830160504 85 83 0.0 1.0 0.00 0.00 0.00 33 1023.0
20260830160004 85 75 0.0 0.0 0.00 0.00 0.00 33 1023.0
20260830155004 84 93 0.0 0.0 0.00 0.00 0.00 34 1023.0
20260830154504 84 92 0.0 0.0 0.00 0.00 0.00 34 1022.9
20260830154004 83 92 0.0 0.0 0.00 0.00 0.00 34 1022.9
20260830153503 83 44 0.0 2.0 0.00 0.00 0.00 34 1022.9
20260830153004 84 98 0.0 0.0 0.00 0.00 0.00 34 1022.9
20260830152504 84 98 0.0 0.0 0.00 0.00 0.00 34 1023.0
20260830152004 84 225 0.0 0.0 0.00 0.00 0.00 35 1023.0
20260830151504 83 226 0.0 0.0 0.00 0.00 0.00 35 1022.9
20260830151004 82 226 0.0 0.0 0.00 0.00 0.00 36 1023.0
20260830150003 81 226 0.0 0.0 0.00 0.00 0.00 38 1022.9
20260830145004 79 231 0.0 0.0 0.00 0.00 0.00 39 1022.9
20260830144504 79 236 0.0 0.0 0.00 0.00 0.00 39 1022.9
20260830144004 78 237 0.0 0.0 0.00 0.00 0.00 40 1022.8
20260830143504 78 237 0.0 0.0 0.00 0.00 0.00 40 1022.8
20260830143004 77 237 0.0 0.0 0.00 0.00 0.00 41 1022.7
20260830141505 74 261 0.0 0.0 0.00 0.00 0.00 44 1022.7
20260830141003 73 261 0.0 0.0 0.00 0.00 0.00 46 1022.7
20260830140504 72 261 0.0 0.0 0.00 0.00 0.00 47 1022.7
20260830140004 71 261 0.0 0.0 0.00 0.00 0.00 48 1022.6
20260830135504 69 261 0.0 0.0 0.00 0.00 0.00 49 1022.6
20260830135004 69 261 0.0 0.0 0.00 0.00 0.00 50 1022.6
20260830134504 68 261 0.0 0.0 0.00 0.00 0.00 51 1022.5
20260830134004 67 261 0.0 0.0 0.00 0.00 0.00 51 1022.5
20260830133504 67 261 0.0 0.0 0.00 0.00 0.00 50 1022.4
20260830132504 67 261 0.0 0.0 0.00 0.00 0.00 50 1022.2
20260830132004 68 261 0.0 0.0 0.00 0.00 0.00 49 1022.3
20260830131504 68 261 0.0 0.0 0.00 0.00 0.00 49 1022.2
20260830130504 69 261 0.0 0.0 0.00 0.00 0.00 48 1022.2
20260830125504 69 261 0.0 0.0 0.00 0.00 0.00 48 1022.1
20260830125004 69 261 0.0 0.0 0.00 0.00 0.00 48 1022.0
20260830124004 70 261 0.0 0.0 0.00 0.00 0.00 48 1021.9
20260830123504 70 261 0.0 0.0 0.00 0.00 0.00 48 1021.8
20260830123004 70 261 0.0 0.0 0.00 0.00 0.00 48 1021.8
20260830122504 70 262 0.0 0.0 0.00 0.00 0.00 48 1021.9
20260830121504 69 262 0.0 0.0 0.00 0.00 0.00 47 1021.8
20260830121004 70 262 0.0 0.0 0.00 0.00 0.00 47 1021.8
20260830120504 70 262 0.0 0.0 0.00 0.00 0.00 47 1021.8
20260830115503 70 265 0.0 0.0 0.00 0.00 0.00 47 1021.7
20260830115005 70 265 0.0 0.0 0.00 0.00 0.00 47 1021.6
20260830114504 70 265 0.0 0.0 0.00 0.00 0.00 46 1021.6
20260830114003 70 279 0.0 0.0 0.00 0.00 0.00 47 1021.6
20260830113504 70 279 0.0 0.0 0.00 0.00 0.00 47 1021.5
20260830113004 70 279 0.0 0.0 0.00 0.00 0.00 47 1021.4
20260830112503 70 322 0.0 0.0 0.00 0.00 0.00 47 1021.4
20260830112004 70 322 0.0 0.0 0.00 0.00 0.00 48 1021.4
20260830111504 70 330 0.0 0.0 0.00 0.00 0.00 47 1021.4
20260830111004 70 330 0.0 0.0 0.00 0.00 0.00 47 1021.4
20260830110503 70 332 0.0 0.0 0.00 0.00 0.00 47 1021.1
20260830110005 70 331 0.0 0.0 0.00 0.00 0.00 48 1021.2
20260830105503 70 332 0.0 0.0 0.00 0.00 0.00 47 1021.2
20260830105004 70 332 0.0 0.0 0.00 0.00 0.00 47 1021.3
20260830104504 70 333 0.0 0.0 0.00 0.00 0.00 46 1021.1
20260830104003 71 215 0.0 0.0 0.00 0.00 0.00 46 1021.1
20260830103503 71 215 0.0 0.0 0.00 0.00 0.00 46 1021.0
20260830103004 71 215 0.0 0.0 0.00 0.00 0.00 46 1021.1
20260830102004 71 215 0.0 0.0 0.00 0.00 0.00 46 1021.2
20260830101504 72 215 0.0 0.0 0.00 0.00 0.00 46 1021.2
20260830101004 72 215 0.0 0.0 0.00 0.00 0.00 45 1021.1
20260830100503 72 215 0.0 0.0 0.00 0.00 0.00 46 1021.1
20260830100005 72 215 0.0 0.0 0.00 0.00 0.00 45 1021.1
20260830095503 72 215 0.0 0.0 0.00 0.00 0.00 45 1020.9
20260830095004 73 215 0.0 0.0 0.00 0.00 0.00 46 1020.9
20260830094504 72 215 0.0 0.0 0.00 0.00 0.00 46 1020.9
20260830094004 72 215 0.0 0.0 0.00 0.00 0.00 46 1020.9
20260830093504 72 215 0.0 0.0 0.00 0.00 0.00 46 1021.0
20260830093004 72 215 0.0 0.0 0.00 0.00 0.00 46 1021.0
20260830092504 72 215 0.0 1.0 0.00 0.00 0.00 46 1021.0
20260830091503 72 207 0.0 0.0 0.00 0.00 0.00 45 1021.0
20260830091004 72 207 0.0 0.0 0.00 0.00 0.00 45 1021.0
20260830090505 73 207 0.0 0.0 0.00 0.00 0.00 45 1021.0
20260830085504 74 205 0.0 0.0 0.00 0.00 0.00 44 1021.1
20260830085004 74 205 0.0 0.0 0.00 0.00 0.00 44 1021.2
20260830084504 74 262 0.0 0.0 0.00 0.00 0.00 43 1021.2
20260830084004 75 262 0.0 0.0 0.00 0.00 0.00 43 1021.2
20260830083504 75 262 0.0 0.0 0.00 0.00 0.00 43 1021.3
20260830083005 75 262 0.0 0.0 0.00 0.00 0.00 43 1021.3
20260830082004 76 184 0.0 3.0 0.00 0.00 0.00 43 1021.1
20260830081504 76 196 0.0 3.0 0.00 0.00 0.00 43 1021.2
20260830080503 76 222 0.0 0.0 0.00 0.00 0.00 42 1021.4
20260830080004 77 261 0.0 0.0 0.00 0.00 0.00 41 1021.4
20260830075504 77 294 0.0 0.0 0.00 0.00 0.00 42 1021.5
20260830075005 76 294 0.0 0.0 0.00 0.00 0.00 43 1021.5
20260830073504 76 181 0.0 0.0 0.00 0.00 0.00 42 1021.5
20260830073004 76 181 0.0 0.0 0.00 0.00 0.00 41 1021.6
20260830072504 76 180 0.0 0.0 0.00 0.00 0.00 41 1021.6
20260830072004 77 181 0.0 0.0 0.00 0.00 0.00 39 1021.7
20260830071004 78 181 0.0 0.0 0.00 0.00 0.00 40 1021.6
20260830070504 78 180 0.0 1.0 0.00 0.00 0.00 40 1021.6
20260830070004 78 45 0.0 0.0 0.00 0.00 0.00 38 1021.7
20260830065504 79 45 0.0 0.0 0.00 0.00 0.00 39 1021.7
20260830065004 79 45 0.0 0.0 0.00 0.00 0.00 39 1021.5
20260830064004 78 45 0.0 0.0 0.00 0.00 0.00 40 1021.5
20260830063003 79 38 0.0 0.0 0.00 0.00 0.00 40 1021.7
20260830062004 80 38 0.0 0.0 0.00 0.00 0.00 38 1021.8
20260830061504 81 38 0.0 0.0 0.00 0.00 0.00 38 1021.7
20260830061004 81 38 0.0 0.0 0.00 0.00 0.00 39 1021.7
20260830060004 81 38 0.0 1.0 0.00 0.00 0.00 39 1021.8
20260830055504 81 355 1.0 5.0 0.00 0.00 0.00 39 1021.7
20260830055004 82 207 0.0 1.0 0.00 0.00 0.00 38 1021.7
20260830054504 82 200 0.0 0.0 0.00 0.00 0.00 38 1021.6
20260830054004 82 224 0.0 3.0 0.00 0.00 0.00 38 1021.5
20260830053504 82 232 0.0 3.0 0.00 0.00 0.00 38 1021.5
20260830053005 82 239 2.0 6.0 0.00 0.00 0.00 38 1021.5
20260830052505 83 235 1.0 6.0 0.00 0.00 0.00 37 1021.5
20260830052004 83 243 1.0 9.0 0.00 0.00 0.00 37 1021.5
20260830051003 83 241 2.0 7.0 0.00 0.00 0.00 37 1021.4
20260830050504 83 230 1.0 9.0 0.00 0.00 0.00 37 1021.4
20260830050005 83 229 5.0 10.0 0.00 0.00 0.00 37 1021.6
20260830045503 83 235 2.0 3.0 0.00 0.00 0.00 37 1021.6
20260830045004 83 223 2.0 7.0 0.00 0.00 0.00 37 1021.4
20260830044504 83 242 1.0 3.0 0.00 0.00 0.00 37 1021.4
20260830044004 84 222 2.0 7.0 0.00 0.00 0.00 37 1021.4
20260830043004 84 220 1.0 5.0 0.00 0.00 0.00 37 1021.4
20260830042503 84 210 2.0 9.0 0.00 0.00 0.00 37 1021.4
20260830042005 84 210 3.0 8.0 0.00 0.00 0.00 37 1021.4
20260830041504 84 223 1.0 6.0 0.00 0.00 0.00 37 1021.2